Location: Casteau
(50.5142°N, 4.0161°E)
Time: 02:22:16
(UTC+00:00)

Explorer 11/Cluster Stage 4 - Pass Details

Date: 06 August 2021
Orbit: 467 x 1257 km, 28.8° (Epoch: 18 September)

Event Time Altitude Azimuth Distance (km) Brightness Sun altitude
Rises 08:54:17 0° 233° (SW) 3,954 10.0 41.3°
Reaches altitude 10° 08:58:42 10° 210° (SSW) 3,114 9.7 41.9°
Maximum altitude 09:02:18 14° 182° (S) 2,898 9.9 42.4°
Drops below altitude 10° 09:05:59 10° 155° (SSE) 3,218 10.5 42.9°
Sets 09:10:42 0° 132° (SE) 4,187 11.1 43.5°
